Time,TemperatureF,DewpointF,PressureIn,WindDirection,WindDirectionDegrees,WindSpeedMPH,WindSpeedGustMPH,Humidity,HourlyPrecipIn,Conditions,Clouds,dailyrainin,SolarRadiationWatts/m^2,SoftwareType,DateUTC
2013-08-13 00:00:00,57.5,46.0,30.17,WSW,256,2.0,3.0,66,0.00,,,0.00,0,weatherlink.com 1.10,2013-08-13 06:00:00,
2013-08-13 00:15:00,55.1,45.0,30.17,WSW,256,2.0,3.0,70,0.00,,,0.00,0,weatherlink.com 1.10,2013-08-13 06:15:00,
2013-08-13 00:30:00,53.8,45.0,30.17,WSW,256,1.0,3.0,72,0.00,,,0.00,0,weatherlink.com 1.10,2013-08-13 06:30:00,
2013-08-13 00:45:00,53.0,44.0,30.17,WSW,249,3.0,4.0,71,0.00,,,0.00,0,weatherlink.com 1.10,2013-08-13 06:45:00,
2013-08-13 01:00:00,53.5,44.0,30.16,West,269,4.0,4.0,71,0.00,,,0.00,0,weatherlink.com 1.10,2013-08-13 07:00:00,
2013-08-13 01:15:00,53.6,44.0,30.16,WSW,250,2.0,7.0,71,0.00,,,0.00,0,weatherlink.com 1.10,2013-08-13 07:15:00,
2013-08-13 01:29:00,53.9,44.0,30.16,West,269,2.0,6.0,70,0.00,,,0.00,0,weatherlink.com 1.10,2013-08-13 07:29:00,
2013-08-13 01:44:00,55.6,45.0,30.15,WSW,251,8.0,12.0,68,0.00,,,0.00,0,weatherlink.com 1.10,2013-08-13 07:44:00,
2013-08-13 01:59:00,56.1,45.0,30.15,SW,226,2.0,11.0,67,0.00,,,0.00,0,weatherlink.com 1.10,2013-08-13 07:59:00,
2013-08-13 02:14:00,55.2,44.0,30.15,SW,222,0.0,3.0,67,0.00,,,0.00,0,weatherlink.com 1.10,2013-08-13 08:14:00,
2013-08-13 02:28:00,54.3,45.0,30.14,WSW,242,1.0,5.0,70,0.00,,,0.00,0,weatherlink.com 1.10,2013-08-13 08:28:00,
2013-08-13 02:43:00,53.8,45.0,30.15,WNW,290,1.0,4.0,71,0.00,,,0.00,0,weatherlink.com 1.10,2013-08-13 08:43:00,
2013-08-13 02:58:00,53.9,45.0,30.14,West,266,7.0,9.0,71,0.00,,,0.00,0,weatherlink.com 1.10,2013-08-13 08:58:00,
2013-08-13 03:13:00,55.3,45.0,30.14,West,265,4.0,11.0,68,0.00,,,0.00,0,weatherlink.com 1.10,2013-08-13 09:13:00,
2013-08-13 03:27:00,55.3,45.0,30.14,SW,236,0.0,6.0,68,0.00,,,0.00,0,weatherlink.com 1.10,2013-08-13 09:27:00,
2013-08-13 03:42:00,54.9,45.0,30.13,West,273,1.0,8.0,69,0.00,,,0.00,0,weatherlink.com 1.10,2013-08-13 09:42:00,
2013-08-13 03:57:00,55.5,45.0,30.13,West,269,4.0,10.0,68,0.00,,,0.00,0,weatherlink.com 1.10,2013-08-13 09:57:00,
2013-08-13 04:11:00,56.0,45.0,30.14,WSW,248,1.0,7.0,66,0.00,,,0.00,0,weatherlink.com 1.10,2013-08-13 10:11:00,
2013-08-13 04:26:00,54.8,44.0,30.14,WSW,246,2.0,4.0,68,0.00,,,0.00,0,weatherlink.com 1.10,2013-08-13 10:26:00,
2013-08-13 04:41:00,55.1,44.0,30.14,West,273,4.0,8.0,66,0.00,,,0.00,0,weatherlink.com 1.10,2013-08-13 10:41:00,
2013-08-13 04:56:00,55.0,44.0,30.15,West,259,7.0,8.0,67,0.00,,,0.00,0,weatherlink.com 1.10,2013-08-13 10:56:00,
2013-08-13 05:10:00,55.2,44.0,30.15,WSW,238,4.0,12.0,65,0.00,,,0.00,0,weatherlink.com 1.10,2013-08-13 11:10:00,
2013-08-13 05:25:00,55.9,43.0,30.15,West,275,4.0,13.0,63,0.00,,,0.00,0,weatherlink.com 1.10,2013-08-13 11:25:00,
2013-08-13 05:40:00,56.5,43.0,30.15,WNW,291,2.0,11.0,61,0.00,,,0.00,0,weatherlink.com 1.10,2013-08-13 11:40:00,
2013-08-13 05:55:00,56.3,43.0,30.15,West,271,0.0,6.0,62,0.00,,,0.00,0,weatherlink.com 1.10,2013-08-13 11:55:00,
2013-08-13 06:09:00,55.5,44.0,30.15,West,265,2.0,2.0,65,0.00,,,0.00,0,weatherlink.com 1.10,2013-08-13 12:09:00,
2013-08-13 06:24:00,53.3,44.0,30.16,West,263,1.0,3.0,71,0.00,,,0.00,5,weatherlink.com 1.10,2013-08-13 12:24:00,
2013-08-13 06:39:00,53.3,44.0,30.16,West,267,2.0,3.0,70,0.00,,,0.00,16,weatherlink.com 1.10,2013-08-13 12:39:00,
2013-08-13 06:54:00,54.3,44.0,30.16,West,265,4.0,7.0,68,0.00,,,0.00,33,weatherlink.com 1.10,2013-08-13 12:54:00,
2013-08-13 07:09:00,56.5,44.0,30.15,West,269,2.0,10.0,63,0.00,,,0.00,62,weatherlink.com 1.10,2013-08-13 13:09:00,
2013-08-13 07:23:00,57.4,44.0,30.15,WSW,252,3.0,6.0,62,0.00,,,0.00,100,weatherlink.com 1.10,2013-08-13 13:23:00,
2013-08-13 07:39:00,58.7,44.0,30.15,SW,228,5.0,10.0,59,0.00,,,0.00,146,weatherlink.com 1.10,2013-08-13 13:39:00,
2013-08-13 07:53:00,60.3,45.0,30.15,WSW,258,4.0,12.0,57,0.00,,,0.00,197,weatherlink.com 1.10,2013-08-13 13:53:00,
2013-08-13 08:09:00,61.8,46.0,30.15,West,267,0.0,6.0,56,0.00,,,0.00,253,weatherlink.com 1.10,2013-08-13 14:09:00,
2013-08-13 08:24:00,63.5,47.0,30.15,West,265,0.0,6.0,54,0.00,,,0.00,302,weatherlink.com 1.10,2013-08-13 14:24:00,
2013-08-13 08:39:00,65.6,49.0,30.14,ENE,77,0.0,3.0,55,0.00,,,0.00,353,weatherlink.com 1.10,2013-08-13 14:39:00,
2013-08-13 08:53:00,66.8,49.0,30.14,East,87,1.0,8.0,52,0.00,,,0.00,295,weatherlink.com 1.10,2013-08-13 14:53:00,
2013-08-13 09:08:00,67.4,48.0,30.14,ESE,111,4.0,6.0,50,0.00,,,0.00,427,weatherlink.com 1.10,2013-08-13 15:08:00,
2013-08-13 09:23:00,67.2,48.0,30.14,East,88,1.0,6.0,50,0.00,,,0.00,448,weatherlink.com 1.10,2013-08-13 15:23:00,
2013-08-13 09:39:00,67.0,48.0,30.14,NE,55,3.0,5.0,51,0.00,,,0.00,480,weatherlink.com 1.10,2013-08-13 15:39:00,
2013-08-13 09:53:00,67.2,48.0,30.14,East,80,4.0,6.0,50,0.00,,,0.00,501,weatherlink.com 1.10,2013-08-13 15:53:00,
2013-08-13 10:08:00,68.1,48.0,30.14,ESE,105,3.0,6.0,48,0.00,,,0.00,547,weatherlink.com 1.10,2013-08-13 16:08:00,
2013-08-13 10:23:00,68.5,47.0,30.14,SE,142,1.0,5.0,47,0.00,,,0.00,575,weatherlink.com 1.10,2013-08-13 16:23:00,
2013-08-13 10:38:00,69.2,47.0,30.14,ESE,103,0.0,7.0,45,0.00,,,0.00,603,weatherlink.com 1.10,2013-08-13 16:38:00,
2013-08-13 10:52:00,69.6,48.0,30.14,ENE,74,4.0,6.0,46,0.00,,,0.00,628,weatherlink.com 1.10,2013-08-13 16:52:00,
2013-08-13 11:08:00,69.9,48.0,30.14,SE,126,1.0,8.0,46,0.00,,,0.00,650,weatherlink.com 1.10,2013-08-13 17:08:00,
2013-08-13 11:22:00,70.1,49.0,30.15,ENE,76,7.0,8.0,47,0.00,,,0.00,687,weatherlink.com 1.10,2013-08-13 17:22:00,
2013-08-13 11:37:00,70.9,48.0,30.14,SE,134,4.0,8.0,45,0.00,,,0.00,710,weatherlink.com 1.10,2013-08-13 17:37:00,
2013-08-13 11:52:00,71.3,49.0,30.14,East,96,4.0,8.0,45,0.00,,,0.00,717,weatherlink.com 1.10,2013-08-13 17:52:00,
2013-08-13 12:07:00,71.6,49.0,30.14,East,101,1.0,6.0,44,0.00,,,0.00,738,weatherlink.com 1.10,2013-08-13 18:07:00,
2013-08-13 12:22:00,72.2,48.0,30.14,ENE,77,4.0,9.0,43,0.00,,,0.00,766,weatherlink.com 1.10,2013-08-13 18:22:00,
2013-08-13 12:37:00,73.2,49.0,30.14,East,96,4.0,10.0,42,0.00,,,0.00,805,weatherlink.com 1.10,2013-08-13 18:37:00,
2013-08-13 12:51:00,73.2,48.0,30.13,NE,51,2.0,9.0,41,0.00,,,0.00,814,weatherlink.com 1.10,2013-08-13 18:51:00,
2013-08-13 13:06:00,74.3,49.0,30.13,ESE,122,4.0,9.0,41,0.00,,,0.00,768,weatherlink.com 1.10,2013-08-13 19:06:00,
2013-08-13 13:21:00,72.9,48.0,30.12,East,93,7.0,7.0,41,0.00,,,0.00,185,weatherlink.com 1.10,2013-08-13 19:21:00,
2013-08-13 13:36:00,71.4,48.0,30.12,ENE,67,3.0,4.0,43,0.00,,,0.00,214,weatherlink.com 1.10,2013-08-13 19:36:00,
2013-08-13 13:51:00,71.2,48.0,30.11,East,80,3.0,4.0,43,0.00,,,0.00,158,weatherlink.com 1.10,2013-08-13 19:51:00,
2013-08-13 14:05:00,71.0,49.0,30.11,NE,51,0.0,3.0,46,0.00,,,0.00,165,weatherlink.com 1.10,2013-08-13 20:05:00,
2013-08-13 14:20:00,72.0,48.0,30.11,East,84,2.0,6.0,43,0.00,,,0.00,378,weatherlink.com 1.10,2013-08-13 20:20:00,
2013-08-13 14:35:00,72.8,47.0,30.11,East,96,1.0,3.0,40,0.00,,,0.00,216,weatherlink.com 1.10,2013-08-13 20:35:00,
2013-08-13 14:50:00,72.9,51.0,30.12,ESE,112,0.0,2.0,47,0.00,,,0.00,218,weatherlink.com 1.10,2013-08-13 20:50:00,
2013-08-13 15:04:00,72.4,49.0,30.12,East,81,0.0,3.0,44,0.00,,,0.00,167,weatherlink.com 1.10,2013-08-13 21:04:00,
2013-08-13 15:19:00,71.5,53.0,30.13,East,81,0.0,2.0,52,0.00,,,0.00,53,weatherlink.com 1.10,2013-08-13 21:19:00,
2013-08-13 15:34:00,68.9,53.0,30.13,East,81,0.0,2.0,57,0.00,,,0.00,28,weatherlink.com 1.10,2013-08-13 21:34:00,
2013-08-13 15:48:00,66.4,53.0,30.14,East,81,2.0,2.0,61,0.00,,,0.00,16,weatherlink.com 1.10,2013-08-13 21:48:00,
2013-08-13 16:03:00,65.5,47.0,30.16,West,277,8.0,19.0,52,0.00,,,0.00,7,weatherlink.com 1.10,2013-08-13 22:03:00,
2013-08-13 16:18:00,62.8,46.0,30.20,West,281,12.0,21.0,54,0.00,,,0.00,0,weatherlink.com 1.10,2013-08-13 22:18:00,
2013-08-13 16:33:00,59.2,49.0,30.23,WSW,257,7.0,17.0,68,0.04,,,0.04,0,weatherlink.com 1.10,2013-08-13 22:33:00,
2013-08-13 16:48:00,55.5,49.0,30.24,West,262,3.0,14.0,79,0.09,,,0.09,0,weatherlink.com 1.10,2013-08-13 22:48:00,
2013-08-13 17:03:00,54.4,48.0,30.24,West,281,6.0,14.0,80,0.12,,,0.12,7,weatherlink.com 1.10,2013-08-13 23:03:00,
2013-08-13 17:17:00,54.1,48.0,30.23,SW,221,6.0,20.0,80,0.14,,,0.14,7,weatherlink.com 1.10,2013-08-13 23:17:00,
2013-08-13 17:32:00,54.6,49.0,30.21,SW,224,7.0,18.0,81,0.12,,,0.16,12,weatherlink.com 1.10,2013-08-13 23:32:00,
2013-08-13 17:47:00,54.9,48.0,30.21,WSW,245,3.0,16.0,77,0.07,,,0.16,28,weatherlink.com 1.10,2013-08-13 23:47:00,
2013-08-13 18:02:00,56.4,47.0,30.21,WSW,258,8.0,16.0,72,0.04,,,0.16,32,weatherlink.com 1.10,2013-08-14 00:02:00,
2013-08-13 18:16:00,56.3,48.0,30.22,WSW,258,3.0,8.0,74,0.02,,,0.16,35,weatherlink.com 1.10,2013-08-14 00:16:00,
2013-08-13 18:31:00,56.8,48.0,30.22,West,265,4.0,13.0,73,0.00,,,0.16,56,weatherlink.com 1.10,2013-08-14 00:31:00,
2013-08-13 18:46:00,57.7,48.0,30.20,West,270,11.0,19.0,70,0.00,,,0.16,62,weatherlink.com 1.10,2013-08-14 00:46:00,
2013-08-13 19:00:00,58.4,47.0,30.18,SE,125,1.0,11.0,66,0.00,,,0.16,32,weatherlink.com 1.10,2013-08-14 01:00:00,
2013-08-13 19:15:00,58.9,46.0,30.18,ESE,117,3.0,10.0,63,0.00,,,0.16,42,weatherlink.com 1.10,2013-08-14 01:15:00,
2013-08-13 19:30:00,59.0,48.0,30.19,ESE,107,3.0,12.0,66,0.00,,,0.16,49,weatherlink.com 1.10,2013-08-14 01:30:00,
2013-08-13 19:45:00,59.1,47.0,30.18,SE,142,2.0,5.0,65,0.00,,,0.16,35,weatherlink.com 1.10,2013-08-14 01:45:00,
2013-08-13 19:59:00,58.7,48.0,30.17,SSE,151,2.0,7.0,67,0.00,,,0.16,16,weatherlink.com 1.10,2013-08-14 01:59:00,
2013-08-13 20:14:00,58.7,47.0,30.18,ENE,72,4.0,6.0,66,0.00,,,0.16,5,weatherlink.com 1.10,2013-08-14 02:14:00,
2013-08-13 20:29:00,58.7,46.0,30.18,SSE,159,2.0,10.0,62,0.00,,,0.16,0,weatherlink.com 1.10,2013-08-14 02:29:00,
2013-08-13 20:44:00,59.1,45.0,30.17,WSW,241,1.0,12.0,60,0.00,,,0.16,0,weatherlink.com 1.10,2013-08-14 02:44:00,
2013-08-13 20:58:00,60.2,44.0,30.17,WSW,251,2.0,11.0,56,0.00,,,0.16,0,weatherlink.com 1.10,2013-08-14 02:58:00,
2013-08-13 21:13:00,60.8,44.0,30.17,WSW,237,4.0,10.0,53,0.00,,,0.16,0,weatherlink.com 1.10,2013-08-14 03:13:00,
2013-08-13 21:28:00,61.7,43.0,30.17,WSW,247,2.0,10.0,50,0.00,,,0.16,0,weatherlink.com 1.10,2013-08-14 03:28:00,
2013-08-13 21:43:00,62.4,43.0,30.18,West,274,7.0,16.0,49,0.00,,,0.16,0,weatherlink.com 1.10,2013-08-14 03:43:00,
2013-08-13 21:57:00,61.6,43.0,30.18,West,274,4.0,13.0,50,0.00,,,0.16,0,weatherlink.com 1.10,2013-08-14 03:57:00,
2013-08-13 22:12:00,60.6,43.0,30.17,West,281,4.0,8.0,52,0.00,,,0.16,0,weatherlink.com 1.10,2013-08-14 04:12:00,
2013-08-13 22:27:00,60.0,43.0,30.18,West,260,6.0,9.0,53,0.00,,,0.16,0,weatherlink.com 1.10,2013-08-14 04:27:00,
2013-08-13 22:42:00,59.6,42.0,30.19,West,263,8.0,11.0,53,0.00,,,0.16,0,weatherlink.com 1.10,2013-08-14 04:42:00,
2013-08-13 22:56:00,59.7,43.0,30.19,WSW,255,5.0,8.0,54,0.00,,,0.16,0,weatherlink.com 1.10,2013-08-14 04:56:00,
2013-08-13 23:11:00,59.2,42.0,30.20,WSW,256,2.0,9.0,53,0.00,,,0.16,0,weatherlink.com 1.10,2013-08-14 05:11:00,
2013-08-13 23:25:00,57.6,43.0,30.20,SW,229,6.0,9.0,58,0.00,,,0.16,0,weatherlink.com 1.10,2013-08-14 05:25:00,
2013-08-13 23:40:00,57.7,43.0,30.19,WSW,255,9.0,9.0,57,0.00,,,0.16,0,weatherlink.com 1.10,2013-08-14 05:40:00,
2013-08-13 23:55:00,57.6,42.0,30.19,West,269,7.0,10.0,55,0.00,,,0.16,0,weatherlink.com 1.10,2013-08-14 05:55:00,